Simultaneous Nadir Overpasses (SNOs) Predictions

Prediction of SNOs between AQUA and METOP-A Satellite Orbit:

Table of predicted SNOs for the next 14.0 days since TLE Epoch: 6/25/2016
Index Date (AQUA) Time (AQUA) Lat,Lon (AQUA) SZA (AQUA ) Date (METOP-A) Time (METOP-A) Lat,Lon (METOP-A) SZA (METOP-A ) Distance(km) Time Diff (sec)
1 06/25/2016 08:42:50 73.84, 43.49 50.51 06/25/2016 08:42:20 73.86, 43.43 50.54 3.12 30
2 06/25/2016 09:32:17 -73.94,-149.07 129.39 06/25/2016 09:33:00 -73.95,-149.05 129.39 1.30 43
3 06/28/2016 03:27:22 -73.16, -56.26 130.11 06/28/2016 03:26:17 -73.12, -59.20 130.02 95.15 65
4 06/28/2016 04:17:03 73.85, 109.92 50.64 06/28/2016 04:16:42 73.85, 109.81 50.65 3.36 21
5 06/28/2016 05:06:30 -73.94, -82.64 129.27 06/28/2016 05:07:22 -73.94, -82.65 129.28 0.44 52
6 06/30/2016 23:01:41 -73.54, 9.40 129.53 06/30/2016 23:00:31 -73.46, 7.97 129.54 46.23 70
7 06/30/2016 23:51:15 73.87, 176.32 50.83 06/30/2016 23:51:02 73.89, 176.30 50.85 2.07 13
8 07/01/2016 00:40:42 -73.95, -16.22 129.08 07/01/2016 00:41:43 -73.94, -16.26 129.11 2.41 61
9 07/03/2016 18:35:59 -73.82, 75.24 129.01 07/03/2016 18:34:46 -73.80, 75.16 129.01 3.59 73
10 07/03/2016 19:25:28 73.90,-117.30 51.08 07/03/2016 19:25:24 73.87,-117.33 51.06 3.08 4
11 07/03/2016 20:14:55 -73.98, 50.17 128.83 07/03/2016 20:16:04 -73.98, 50.24 128.85 2.15 69
12 07/06/2016 14:10:12 -73.85, 141.62 128.70 07/06/2016 14:09:07 -73.84, 141.66 128.70 2.33 65
13 07/06/2016 14:59:40 73.89, -50.82 51.35 07/06/2016 14:59:45 73.90, -50.84 51.37 2.25 5




NCC Satellite Simultaneous Nadir Overpasses (SNOs) Prediction Service
